DLH647 EDDF-UAAA

Flight info

Callsign DLH647
Flight time 6h 40m
Altitude 35000
Route SULUS7S/18 SULUS Z650 VEMUT/N0467F370 DCT PEPIK DCT ERGOM DCT TEGRI DCT EKSUN DCT RIVOS DCT DINRO N743 UDROS/N0474F390 UM859 KARDE UN644 ROLIN DCT LAGAS M747 LUSAL N199 RASAM L88 METKA B476 TIMGA A480 OTBOR/K0861F390 N147 PIDWO Y720 LAPZE Z640 GILAT N102 SMK N143 TAR Z817 AGLEK Z370 EKLAT EKLAT2D
Aircraft A333/H-SDE3GHIJ2J3J5M1RVWXY/LB2D1

Departure

Time 2026-05-05 11:27
Airport Frankfurt Main Airport (EDDF)

Arrival

Time 2026-05-05 18:07
Airport Almaty International Airport (UAAA)
Time Latitude Longitude Altitude Speed Heading
2026-05-05 11:01 50.04642 8.56654 376 ft 0 kts 115°
2026-05-05 11:11 50.04642 8.56653 377 ft 0 kts 115°
2026-05-05 11:13 50.04647 8.56637 376 ft 2 kts 110°
2026-05-05 11:13 50.04652 8.56615 376 ft 2 kts 111°
2026-05-05 11:14 50.04657 8.56593 376 ft 2 kts 112°
2026-05-05 11:14 50.04663 8.56572 375 ft 2 kts 111°
2026-05-05 11:14 50.04669 8.56550 375 ft 2 kts 137°
2026-05-05 11:14 50.04681 8.56539 375 ft 2 kts 175°
2026-05-05 11:15 50.04695 8.56540 375 ft 0 kts 205°
2026-05-05 11:15 50.04700 8.56544 375 ft 0 kts 206°
2026-05-05 11:18 50.04699 8.56544 375 ft 0 kts 207°
2026-05-05 11:18 50.04687 8.56535 375 ft 5 kts 205°
2026-05-05 11:18 50.04620 8.56488 374 ft 13 kts 204°
2026-05-05 11:18 50.04539 8.56418 372 ft 13 kts 225°
2026-05-05 11:19 50.04491 8.56278 370 ft 16 kts 248°
2026-05-05 11:19 50.04451 8.56111 370 ft 14 kts 249°
2026-05-05 11:19 50.04386 8.56040 368 ft 12 kts 176°
2026-05-05 11:19 50.04311 8.56066 367 ft 8 kts 179°
2026-05-05 11:20 50.04256 8.56001 364 ft 14 kts 240°
2026-05-05 11:20 50.04217 8.55843 363 ft 16 kts 250°
2026-05-05 11:20 50.04177 8.55674 361 ft 16 kts 250°
2026-05-05 11:20 50.04139 8.55520 363 ft 14 kts 249°
2026-05-05 11:21 50.04103 8.55366 362 ft 18 kts 250°
2026-05-05 11:21 50.04051 8.55154 359 ft 22 kts 250°
2026-05-05 11:21 50.03996 8.54916 354 ft 23 kts 250°
2026-05-05 11:21 50.03937 8.54674 350 ft 24 kts 250°
2026-05-05 11:22 50.03880 8.54432 350 ft 23 kts 249°
2026-05-05 11:22 50.03801 8.54218 349 ft 21 kts 245°
2026-05-05 11:22 50.03750 8.54014 352 ft 18 kts 250°
2026-05-05 11:22 50.03709 8.53840 355 ft 15 kts 250°
2026-05-05 11:23 50.03665 8.53656 354 ft 19 kts 248°
2026-05-05 11:23 50.03610 8.53439 353 ft 24 kts 250°
2026-05-05 11:23 50.03546 8.53171 348 ft 27 kts 250°
2026-05-05 11:23 50.03481 8.52906 347 ft 23 kts 247°
2026-05-05 11:24 50.03447 8.52779 347 ft 7 kts 248°
2026-05-05 11:24 50.03439 8.52748 346 ft 0 kts 248°
2026-05-05 11:24 50.03431 8.52718 346 ft 7 kts 249°
2026-05-05 11:24 50.03405 8.52630 346 ft 9 kts 235°
2026-05-05 11:25 50.03359 8.52596 345 ft 0 kts 182°
2026-05-05 11:26 50.03313 8.52594 344 ft 26 kts 182°
2026-05-05 11:26 50.02910 8.52599 336 ft 89 kts 179°
2026-05-05 11:27 50.02088 8.52607 335 ft 143 kts 182°
2026-05-05 11:27 50.00949 8.52620 423 ft 176 kts 180°
2026-05-05 11:27 49.99792 8.52655 1116 ft 163 kts 181°
2026-05-05 11:27 49.98620 8.52643 1571 ft 171 kts 184°
2026-05-05 11:28 49.97436 8.52562 1847 ft 175 kts 186°
2026-05-05 11:28 49.96186 8.52415 2067 ft 186 kts 187°
2026-05-05 11:28 49.94844 8.52226 2261 ft 199 kts 187°
2026-05-05 11:28 49.93432 8.52041 2481 ft 212 kts 186°
2026-05-05 11:29 49.91916 8.51892 2734 ft 225 kts 185°
2026-05-05 11:29 49.90337 8.51761 3232 ft 227 kts 185°
2026-05-05 11:29 49.88795 8.51618 3885 ft 220 kts 185°
2026-05-05 11:29 49.87277 8.51476 4218 ft 234 kts 185°
2026-05-05 11:30 49.85581 8.51315 4399 ft 258 kts 185°
2026-05-05 11:30 49.83741 8.51129 4919 ft 267 kts 185°
2026-05-05 11:30 49.81902 8.50930 5634 ft 268 kts 185°
2026-05-05 11:30 49.80052 8.50718 6378 ft 268 kts 185°
2026-05-05 11:31 49.78198 8.50494 7012 ft 272 kts 185°
2026-05-05 11:31 49.76322 8.50260 7691 ft 273 kts 185°
2026-05-05 11:31 49.74419 8.50016 8358 ft 276 kts 185°
2026-05-05 11:31 49.72511 8.49766 9060 ft 277 kts 185°
2026-05-05 11:32 49.70593 8.49507 9690 ft 279 kts 185°
2026-05-05 11:32 49.68654 8.49236 10338 ft 281 kts 185°
2026-05-05 11:32 49.66710 8.48970 10964 ft 284 kts 185°
2026-05-05 11:32 49.64734 8.48700 11613 ft 286 kts 185°
2026-05-05 11:33 49.62756 8.48433 12140 ft 291 kts 185°
2026-05-05 11:33 49.60746 8.48168 12737 ft 293 kts 185°
2026-05-05 11:33 49.58715 8.47900 13383 ft 293 kts 185°
2026-05-05 11:33 49.56673 8.47629 13924 ft 296 kts 185°
2026-05-05 11:34 49.54767 8.47374 14444 ft 299 kts 185°
2026-05-05 11:34 49.52684 8.47097 14890 ft 303 kts 185°
2026-05-05 11:34 49.50586 8.46822 14793 ft 305 kts 185°
2026-05-05 11:34 49.48485 8.46558 14850 ft 298 kts 181°
2026-05-05 11:35 49.46446 8.47084 14906 ft 308 kts 157°
2026-05-05 11:35 49.44652 8.48986 15091 ft 325 kts 135°
2026-05-05 11:35 49.43542 8.51484 15120 ft 345 kts 117°
2026-05-05 11:35 49.42940 8.55181 15168 ft 368 kts 96°
2026-05-05 11:36 49.43240 8.59149 15291 ft 388 kts 75°
2026-05-05 11:36 49.44459 8.62893 15713 ft 398 kts 57°
2026-05-05 11:36 49.45950 8.66488 16250 ft 400 kts 63°
2026-05-05 11:36 49.47260 8.70244 16730 ft 403 kts 65°
2026-05-05 11:37 49.48523 8.74130 17200 ft 407 kts 66°
2026-05-05 11:37 49.49757 8.78047 17681 ft 409 kts 67°
2026-05-05 11:37 49.50977 8.81973 18135 ft 413 kts 67°
2026-05-05 11:37 49.52216 8.85990 18563 ft 417 kts 67°
2026-05-05 11:38 49.53450 8.90006 19054 ft 420 kts 67°
2026-05-05 11:38 49.54697 8.94069 19499 ft 422 kts 67°
2026-05-05 11:38 49.55949 8.98158 19880 ft 427 kts 67°
2026-05-05 11:38 49.57222 9.02329 20298 ft 430 kts 67°
2026-05-05 11:39 49.58493 9.06489 20735 ft 432 kts 67°
2026-05-05 11:39 49.59775 9.10698 21135 ft 435 kts 67°
2026-05-05 11:39 49.61060 9.14925 21535 ft 438 kts 67°
2026-05-05 11:39 49.62350 9.19175 21882 ft 441 kts 67°
2026-05-05 11:40 49.63647 9.23455 22270 ft 444 kts 67°
2026-05-05 11:40 49.64941 9.27733 22678 ft 445 kts 67°
2026-05-05 11:40 49.66251 9.32068 23002 ft 449 kts 67°
2026-05-05 11:40 49.67576 9.36467 23371 ft 452 kts 67°
2026-05-05 11:41 49.68888 9.40826 23749 ft 454 kts 66°
2026-05-05 11:41 49.70211 9.45229 24106 ft 457 kts 66°
2026-05-05 11:41 49.71557 9.49719 24439 ft 460 kts 67°
2026-05-05 11:41 49.72883 9.54151 24791 ft 462 kts 67°
2026-05-05 11:42 49.74243 9.58704 25180 ft 464 kts 66°
2026-05-05 11:42 49.75582 9.63196 25481 ft 467 kts 66°
2026-05-05 11:42 49.76825 9.67369 25823 ft 469 kts 68°
2026-05-05 11:42 49.77700 9.70312 26050 ft 470 kts 68°
2026-05-05 11:43 49.79053 9.74877 26314 ft 474 kts 67°
2026-05-05 11:43 49.80421 9.79496 26629 ft 477 kts 67°
2026-05-05 11:43 49.81804 9.84171 26990 ft 479 kts 68°
2026-05-05 11:43 49.83200 9.88904 27336 ft 481 kts 68°
2026-05-05 11:44 49.84588 9.93619 27617 ft 484 kts 67°
2026-05-05 11:44 49.85979 9.98355 27900 ft 487 kts 67°
2026-05-05 11:44 49.87390 10.03167 28201 ft 489 kts 67°
2026-05-05 11:44 49.88795 10.07961 28478 ft 492 kts 67°
2026-05-05 11:45 49.90211 10.12810 28764 ft 494 kts 67°
2026-05-05 11:45 49.91622 10.17647 29059 ft 496 kts 68°
2026-05-05 11:45 49.93050 10.22559 29330 ft 497 kts 67°
2026-05-05 11:45 49.94471 10.27452 29577 ft 500 kts 67°
2026-05-05 11:46 49.95878 10.32312 29799 ft 502 kts 67°
2026-05-05 11:46 49.97319 10.37294 30058 ft 503 kts 67°
2026-05-05 11:46 49.98743 10.42227 30264 ft 505 kts 67°
2026-05-05 11:46 50.00177 10.47208 30456 ft 507 kts 67°
2026-05-05 11:47 50.01619 10.52228 30649 ft 508 kts 67°
2026-05-05 11:47 50.03069 10.57285 30765 ft 511 kts 67°
2026-05-05 11:47 50.04492 10.62255 30848 ft 505 kts 67°
2026-05-05 11:48 50.06353 10.77986 30834 ft 497 kts 104°
2026-05-05 11:48 50.04300 10.88187 30825 ft 494 kts 111°
2026-05-05 11:49 50.02156 10.98296 30818 ft 493 kts 111°
2026-05-05 11:49 50.00022 11.08324 30823 ft 493 kts 111°
2026-05-05 11:50 49.97855 11.18455 30823 ft 493 kts 111°
2026-05-05 11:50 49.95715 11.28508 30822 ft 493 kts 111°
2026-05-05 11:51 49.93572 11.38590 30824 ft 494 kts 111°
2026-05-05 11:51 49.91634 11.48792 30824 ft 494 kts 108°
2026-05-05 11:52 49.89745 11.59084 30826 ft 494 kts 108°
2026-05-05 11:52 49.87999 11.69374 30812 ft 498 kts 101°
2026-05-05 11:53 49.87075 11.80031 30829 ft 499 kts 100°
2026-05-05 11:53 49.86129 11.90679 30834 ft 498 kts 100°
2026-05-05 11:54 49.85178 12.01261 30836 ft 498 kts 100°
2026-05-05 11:54 49.84227 12.11807 30829 ft 498 kts 100°
2026-05-05 11:55 49.83253 12.22476 30830 ft 498 kts 100°
2026-05-05 11:55 49.82282 12.33060 30832 ft 499 kts 100°
2026-05-05 11:56 49.81302 12.43671 30847 ft 501 kts 100°
2026-05-05 11:56 49.80529 12.48946 30978 ft 498 kts 109°
2026-05-05 11:56 49.79505 12.54021 31179 ft 498 kts 109°
2026-05-05 11:57 49.78482 12.59146 31327 ft 499 kts 109°
2026-05-05 11:57 49.77450 12.64300 31438 ft 501 kts 109°
2026-05-05 11:57 49.75564 12.73693 31625 ft 503 kts 110°
2026-05-05 11:58 49.74513 12.78914 31742 ft 503 kts 109°
2026-05-05 11:58 49.73482 12.84017 31818 ft 504 kts 110°
2026-05-05 11:58 49.71392 12.94322 31981 ft 506 kts 109°
2026-05-05 11:59 49.69275 13.04706 32091 ft 507 kts 109°
2026-05-05 11:59 49.67143 13.15111 32227 ft 508 kts 109°
2026-05-05 12:00 49.65017 13.25431 32349 ft 508 kts 109°
2026-05-05 12:00 49.62880 13.35752 32413 ft 509 kts 109°
2026-05-05 12:01 49.60716 13.46148 32489 ft 509 kts 109°
2026-05-05 12:01 49.58560 13.56456 32583 ft 509 kts 109°
2026-05-05 12:02 49.56375 13.66850 32625 ft 509 kts 110°
2026-05-05 12:02 49.54183 13.77216 32644 ft 509 kts 110°
2026-05-05 12:03 49.51998 13.87500 32704 ft 509 kts 110°
2026-05-05 12:03 49.49791 13.97839 32743 ft 509 kts 110°
2026-05-05 12:04 49.47578 14.08150 32748 ft 509 kts 110°
2026-05-05 12:04 49.45359 14.18439 32763 ft 509 kts 110°
2026-05-05 12:05 49.43138 14.28679 32791 ft 509 kts 109°
2026-05-05 12:05 49.40887 14.39015 32794 ft 510 kts 109°
2026-05-05 12:06 49.38639 14.49281 32813 ft 510 kts 109°
2026-05-05 12:06 49.36375 14.59565 32829 ft 510 kts 109°
2026-05-05 12:07 49.34113 14.69798 32835 ft 510 kts 110°
2026-05-05 12:07 49.31829 14.80079 32841 ft 510 kts 110°
2026-05-05 12:08 49.29541 14.90320 32858 ft 510 kts 110°
2026-05-05 12:08 49.27236 15.00593 32866 ft 510 kts 110°
2026-05-05 12:09 49.24943 15.10762 32870 ft 509 kts 110°
2026-05-05 12:09 49.22626 15.20991 32868 ft 509 kts 110°
2026-05-05 12:10 49.20309 15.31165 32864 ft 509 kts 110°
2026-05-05 12:10 49.17980 15.41346 32867 ft 509 kts 110°
2026-05-05 12:11 49.15645 15.51504 32875 ft 508 kts 110°
2026-05-05 12:11 49.13316 15.61588 32871 ft 508 kts 110°
2026-05-05 12:12 49.10962 15.71738 33647 ft 489 kts 111°
2026-05-05 12:12 49.09847 15.76531 34540 ft 474 kts 111°
2026-05-05 12:12 49.08759 15.81191 34893 ft 471 kts 111°
2026-05-05 12:13 49.07648 15.85933 34769 ft 479 kts 111°
2026-05-05 12:13 49.06526 15.90721 34880 ft 480 kts 111°
2026-05-05 12:13 49.04266 16.00331 34841 ft 487 kts 111°
2026-05-05 12:14 49.01962 16.10081 34850 ft 491 kts 111°
2026-05-05 12:14 48.99640 16.19869 34854 ft 494 kts 111°
2026-05-05 12:15 48.97306 16.29660 34857 ft 496 kts 111°
2026-05-05 12:15 48.94946 16.39519 34838 ft 498 kts 111°
2026-05-05 12:16 48.92569 16.49397 34848 ft 497 kts 111°
2026-05-05 12:16 48.90209 16.59168 34855 ft 493 kts 111°
2026-05-05 12:17 48.87830 16.68973 34841 ft 494 kts 112°
2026-05-05 12:17 48.85451 16.78731 34859 ft 494 kts 112°
2026-05-05 12:18 48.83064 16.88484 34851 ft 493 kts 112°
2026-05-05 12:18 48.80671 16.98213 34852 ft 494 kts 112°
2026-05-05 12:19 48.78034 17.07716 34841 ft 490 kts 124°
2026-05-05 12:19 48.73775 17.15732 34877 ft 489 kts 132°
2026-05-05 12:20 48.69345 17.23500 34876 ft 488 kts 133°
2026-05-05 12:20 48.64922 17.31194 34880 ft 487 kts 133°
2026-05-05 12:21 48.60477 17.38899 34876 ft 487 kts 133°
2026-05-05 12:21 48.56028 17.46591 34888 ft 487 kts 133°
2026-05-05 12:22 48.51561 17.54290 34892 ft 487 kts 133°
2026-05-05 12:22 48.47120 17.61924 34889 ft 486 kts 133°
2026-05-05 12:23 48.42658 17.69568 34893 ft 486 kts 133°
2026-05-05 12:23 48.38189 17.77204 34888 ft 486 kts 133°
2026-05-05 12:24 48.33739 17.84785 34905 ft 486 kts 133°
2026-05-05 12:24 48.29281 17.92357 34896 ft 486 kts 133°
2026-05-05 12:25 48.24802 17.99945 34924 ft 486 kts 133°
2026-05-05 12:25 48.20306 18.07540 34915 ft 486 kts 133°
2026-05-05 12:26 48.15818 18.15098 34913 ft 486 kts 133°
2026-05-05 12:26 48.11331 18.22634 34925 ft 486 kts 133°
2026-05-05 12:27 48.06838 18.30160 34921 ft 486 kts 133°
2026-05-05 12:27 48.02355 18.37645 34926 ft 486 kts 133°
2026-05-05 12:28 47.97848 18.45150 34929 ft 486 kts 133°
2026-05-05 12:28 47.93347 18.52626 34933 ft 486 kts 133°
2026-05-05 12:29 47.88821 18.60119 34943 ft 486 kts 133°
2026-05-05 12:29 47.84313 18.67564 34940 ft 486 kts 134°
2026-05-05 12:30 47.79763 18.75020 34942 ft 486 kts 134°
2026-05-05 12:30 47.75172 18.82367 34949 ft 486 kts 134°
2026-05-05 12:31 47.70594 18.89683 34960 ft 486 kts 134°
2026-05-05 12:31 47.65985 18.97024 34970 ft 486 kts 134°
2026-05-05 12:32 47.61397 19.04313 34974 ft 486 kts 134°
2026-05-05 12:32 47.56782 19.11627 34973 ft 486 kts 134°
2026-05-05 12:33 47.52168 19.18916 34975 ft 487 kts 134°
2026-05-05 12:33 47.47525 19.26232 34972 ft 487 kts 134°
2026-05-05 12:34 47.42914 19.33477 34977 ft 487 kts 134°
2026-05-05 12:34 47.38257 19.40774 34972 ft 487 kts 134°
2026-05-05 12:35 47.33617 19.48024 34973 ft 488 kts 134°
2026-05-05 12:35 47.28966 19.55273 34973 ft 488 kts 134°
2026-05-05 12:36 47.24295 19.62532 34977 ft 488 kts 134°
2026-05-05 12:36 47.19641 19.69747 34967 ft 488 kts 135°
2026-05-05 12:37 47.14962 19.76977 34968 ft 489 kts 135°
2026-05-05 12:37 47.10291 19.84178 34980 ft 489 kts 135°
2026-05-05 12:38 47.05615 19.91366 34981 ft 489 kts 135°
2026-05-05 12:38 47.00919 19.98566 34980 ft 490 kts 135°
2026-05-05 12:39 46.96213 20.05759 34984 ft 490 kts 135°
2026-05-05 12:39 46.91493 20.12956 34979 ft 491 kts 135°
2026-05-05 12:40 46.86784 20.20117 34972 ft 491 kts 134°
2026-05-05 12:40 46.82052 20.27294 34973 ft 492 kts 134°
2026-05-05 12:41 46.77291 20.34493 34975 ft 492 kts 134°
2026-05-05 12:41 46.72518 20.41692 34974 ft 493 kts 134°
2026-05-05 12:42 46.67760 20.48850 34979 ft 494 kts 134°
2026-05-05 12:42 46.62996 20.55997 34976 ft 493 kts 134°
2026-05-05 12:43 46.58237 20.63116 34982 ft 494 kts 134°
2026-05-05 12:43 46.53437 20.70279 34978 ft 493 kts 135°
2026-05-05 12:44 46.48652 20.77400 34990 ft 494 kts 135°
2026-05-05 12:44 46.43861 20.84510 34984 ft 494 kts 134°
2026-05-05 12:45 46.39054 20.91625 34988 ft 495 kts 134°
2026-05-05 12:45 46.34226 20.98752 34995 ft 495 kts 134°
2026-05-05 12:46 46.29424 21.05822 35003 ft 495 kts 134°
2026-05-05 12:46 46.25422 21.13771 35017 ft 493 kts 110°
2026-05-05 12:47 46.23349 21.23033 34991 ft 496 kts 107°
2026-05-05 12:47 46.21180 21.32425 35014 ft 494 kts 107°
2026-05-05 12:48 46.19000 21.41762 35016 ft 494 kts 107°
2026-05-05 12:48 46.16797 21.51160 35012 ft 495 kts 107°
2026-05-05 12:49 46.14587 21.60542 35015 ft 495 kts 107°
2026-05-05 12:49 46.12368 21.69922 35008 ft 495 kts 107°
2026-05-05 12:50 46.10143 21.79288 35018 ft 496 kts 107°
2026-05-05 12:50 46.07905 21.88669 35016 ft 496 kts 107°
2026-05-05 12:51 46.05657 21.98050 35017 ft 496 kts 107°
2026-05-05 12:51 46.03413 22.07382 35018 ft 496 kts 107°
2026-05-05 12:52 46.01147 22.16757 35015 ft 496 kts 107°
2026-05-05 12:52 45.98879 22.26107 35008 ft 496 kts 107°
2026-05-05 12:53 45.96602 22.35453 35018 ft 496 kts 107°
2026-05-05 12:53 45.94317 22.44795 35032 ft 495 kts 107°
2026-05-05 12:54 45.90882 22.58762 35044 ft 495 kts 107°
2026-05-05 12:55 45.88984 22.66446 35039 ft 496 kts 107°
2026-05-05 12:55 45.86790 22.75290 35039 ft 495 kts 107°
2026-05-05 12:56 45.84478 22.84575 35036 ft 495 kts 107°
2026-05-05 12:56 45.82172 22.93799 35031 ft 495 kts 107°
2026-05-05 12:57 45.79836 23.03105 35021 ft 495 kts 107°
2026-05-05 12:57 45.77506 23.12348 35024 ft 494 kts 107°
2026-05-05 12:58 45.75174 23.21566 35032 ft 494 kts 107°
2026-05-05 12:58 45.72838 23.30756 35045 ft 493 kts 107°
2026-05-05 12:59 45.70497 23.39936 35064 ft 493 kts 107°
2026-05-05 12:59 45.68136 23.49154 35078 ft 493 kts 107°
2026-05-05 13:00 45.64605 23.62873 35089 ft 492 kts 107°
2026-05-05 13:01 45.59842 23.81253 35100 ft 492 kts 108°
2026-05-05 13:01 45.57475 23.90335 35099 ft 491 kts 107°
2026-05-05 13:02 45.55083 23.99473 35096 ft 491 kts 107°
2026-05-05 13:02 45.52693 24.08569 35095 ft 490 kts 107°
2026-05-05 13:03 45.50309 24.17611 35073 ft 490 kts 107°
2026-05-05 13:03 45.47903 24.26695 35063 ft 490 kts 107°
2026-05-05 13:04 45.45499 24.35742 35087 ft 490 kts 107°
2026-05-05 13:04 45.43089 24.44777 35080 ft 490 kts 107°
2026-05-05 13:05 45.40653 24.53871 35080 ft 491 kts 107°
2026-05-05 13:05 45.38214 24.62944 35087 ft 490 kts 107°
2026-05-05 13:06 45.35782 24.71955 35090 ft 490 kts 108°
2026-05-05 13:06 45.33334 24.80993 35095 ft 490 kts 108°
2026-05-05 13:07 45.30886 24.89998 35069 ft 490 kts 108°
2026-05-05 13:07 45.28432 24.98993 35067 ft 489 kts 108°
2026-05-05 13:08 45.25966 25.07993 35073 ft 491 kts 108°
2026-05-05 13:08 45.23488 25.17006 35061 ft 489 kts 108°
2026-05-05 13:09 45.21008 25.25990 35072 ft 489 kts 108°
2026-05-05 13:09 45.18531 25.34930 35067 ft 489 kts 108°
2026-05-05 13:10 45.16045 25.43874 35071 ft 489 kts 108°
2026-05-05 13:10 45.13557 25.52792 35069 ft 489 kts 108°
2026-05-05 13:11 45.11050 25.61740 35057 ft 488 kts 108°
2026-05-05 13:11 45.08553 25.70625 35057 ft 488 kts 109°
2026-05-05 13:12 45.06034 25.79554 35060 ft 488 kts 109°
2026-05-05 13:12 45.03534 25.88380 35057 ft 487 kts 109°
2026-05-05 13:13 45.01012 25.97257 35052 ft 487 kts 109°
2026-05-05 13:13 44.98465 26.06188 35052 ft 486 kts 109°
2026-05-05 13:14 44.95931 26.15043 35048 ft 486 kts 109°
2026-05-05 13:14 44.93399 26.23853 35044 ft 485 kts 109°
2026-05-05 13:15 44.91170 26.32736 35035 ft 478 kts 99°
2026-05-05 13:15 44.89544 26.41872 35034 ft 481 kts 101°
2026-05-05 13:16 44.87853 26.50899 35040 ft 480 kts 102°
2026-05-05 13:16 44.86130 26.60002 35026 ft 479 kts 102°
2026-05-05 13:17 44.84411 26.69046 35026 ft 480 kts 102°
2026-05-05 13:17 44.82688 26.78063 35034 ft 479 kts 103°
2026-05-05 13:18 44.80944 26.87147 35038 ft 479 kts 103°
2026-05-05 13:18 44.79210 26.96139 35030 ft 479 kts 103°
2026-05-05 13:19 44.77461 27.05163 35031 ft 479 kts 103°
2026-05-05 13:19 44.75716 27.14132 35030 ft 477 kts 103°
2026-05-05 13:20 44.73953 27.23147 35029 ft 476 kts 103°
2026-05-05 13:20 44.72202 27.32056 35029 ft 475 kts 103°
2026-05-05 13:21 44.70449 27.40944 35038 ft 475 kts 103°
2026-05-05 13:21 44.68677 27.49883 35038 ft 474 kts 103°
2026-05-05 13:22 44.66913 27.58738 35035 ft 472 kts 104°
2026-05-05 13:22 44.64117 27.67004 35041 ft 476 kts 129°
2026-05-05 13:23 44.59218 27.73290 35049 ft 481 kts 137°
2026-05-05 13:23 44.54203 27.79456 35042 ft 478 kts 137°
2026-05-05 13:24 44.49228 27.85558 35042 ft 477 kts 137°
2026-05-05 13:24 44.44223 27.91679 35059 ft 478 kts 137°
2026-05-05 13:25 44.39220 27.97785 35037 ft 477 kts 137°
2026-05-05 13:25 44.34190 28.03910 35047 ft 477 kts 137°
2026-05-05 13:26 44.29202 28.09969 35053 ft 478 kts 138°
2026-05-05 13:26 44.24177 28.16059 35055 ft 478 kts 137°
2026-05-05 13:27 44.19182 28.22098 35052 ft 479 kts 137°
2026-05-05 13:27 44.14128 28.28194 35049 ft 479 kts 137°
2026-05-05 13:28 44.09083 28.34266 35061 ft 480 kts 138°
2026-05-05 13:28 44.04052 28.40306 35062 ft 480 kts 137°
2026-05-05 13:29 43.98990 28.46370 35061 ft 480 kts 137°
2026-05-05 13:29 43.93945 28.52398 35058 ft 480 kts 137°
2026-05-05 13:30 43.88892 28.58423 35061 ft 481 kts 137°
2026-05-05 13:30 43.83843 28.64428 35058 ft 481 kts 137°
2026-05-05 13:31 43.78772 28.70447 35066 ft 482 kts 138°
2026-05-05 13:31 43.73663 28.76496 35066 ft 483 kts 138°
2026-05-05 13:32 43.68887 28.82881 35056 ft 480 kts 124°
2026-05-05 13:32 43.65014 28.90361 35060 ft 482 kts 124°
2026-05-05 13:33 43.61109 28.97823 35075 ft 481 kts 124°
2026-05-05 13:33 43.57188 29.05287 35068 ft 481 kts 124°
2026-05-05 13:34 43.53273 29.12724 35076 ft 481 kts 124°
2026-05-05 13:34 43.49339 29.20177 35073 ft 481 kts 124°
2026-05-05 13:35 43.45398 29.27623 35060 ft 481 kts 124°
2026-05-05 13:35 43.41471 29.35025 35082 ft 482 kts 124°
2026-05-05 13:36 43.37529 29.42440 35065 ft 482 kts 124°
2026-05-05 13:36 43.33581 29.49842 35071 ft 482 kts 123°
2026-05-05 13:37 43.29628 29.57238 35073 ft 482 kts 124°
2026-05-05 13:37 43.25663 29.64638 35073 ft 483 kts 124°
2026-05-05 13:38 43.21700 29.72015 35062 ft 483 kts 124°
2026-05-05 13:38 43.17695 29.79452 35065 ft 485 kts 124°
2026-05-05 13:39 43.13709 29.86835 35053 ft 484 kts 124°
2026-05-05 13:39 43.09695 29.94251 35051 ft 486 kts 124°
2026-05-05 13:40 43.05679 30.01653 35052 ft 486 kts 124°
2026-05-05 13:40 43.01659 30.09041 35054 ft 486 kts 124°
2026-05-05 13:41 42.97623 30.16444 35047 ft 487 kts 124°
2026-05-05 13:41 42.93584 30.23833 35045 ft 487 kts 124°
2026-05-05 13:42 42.89606 30.31091 35042 ft 487 kts 123°
2026-05-05 13:42 42.85546 30.38480 35037 ft 488 kts 123°
2026-05-05 13:43 42.81485 30.45855 35033 ft 488 kts 123°
2026-05-05 13:43 42.77425 30.53209 35033 ft 488 kts 123°
2026-05-05 13:44 42.73907 30.60987 35020 ft 479 kts 104°
2026-05-05 13:44 42.73251 30.65378 35054 ft 473 kts 93°
2026-05-05 13:44 42.72848 30.69800 35044 ft 476 kts 94°
2026-05-05 13:45 42.71957 30.78720 35027 ft 476 kts 95°
2026-05-05 13:45 42.71050 30.87601 35024 ft 474 kts 95°
2026-05-05 13:46 42.70142 30.96417 35023 ft 474 kts 94°
2026-05-05 13:46 42.69225 31.05253 35016 ft 474 kts 94°
2026-05-05 13:47 42.68299 31.14106 35013 ft 473 kts 94°
2026-05-05 13:47 42.67374 31.22889 35014 ft 473 kts 94°
2026-05-05 13:48 42.66434 31.31732 35011 ft 472 kts 94°
2026-05-05 13:48 42.65498 31.40492 35009 ft 473 kts 94°
2026-05-05 13:49 42.64546 31.49317 35013 ft 472 kts 94°
2026-05-05 13:49 42.63594 31.58083 35007 ft 472 kts 94°
2026-05-05 13:50 42.62628 31.66919 35008 ft 472 kts 95°
2026-05-05 13:50 42.61663 31.75671 35004 ft 473 kts 95°
2026-05-05 13:51 42.60685 31.84488 35010 ft 472 kts 95°
2026-05-05 13:51 42.59705 31.93254 35008 ft 472 kts 95°
2026-05-05 13:52 42.58721 32.02007 35007 ft 471 kts 94°
2026-05-05 13:52 42.57746 32.10728 34993 ft 471 kts 95°
2026-05-05 13:53 42.56747 32.19483 35011 ft 471 kts 95°
2026-05-05 13:53 42.55743 32.28208 35008 ft 471 kts 95°
2026-05-05 13:54 42.54733 32.36939 34980 ft 471 kts 94°
2026-05-05 13:54 42.53715 32.45675 35123 ft 471 kts 95°
2026-05-05 13:55 42.53196 32.50099 35013 ft 472 kts 95°
2026-05-05 13:55 42.52683 32.54453 34971 ft 469 kts 94°
2026-05-05 13:55 42.51659 32.63124 34993 ft 469 kts 94°
2026-05-05 13:56 42.50629 32.71786 35003 ft 470 kts 95°
2026-05-05 13:56 42.49587 32.80490 34989 ft 469 kts 95°
2026-05-05 13:57 42.48533 32.89237 34985 ft 469 kts 95°
2026-05-05 13:57 42.47484 32.97889 34991 ft 469 kts 95°
2026-05-05 13:58 42.46425 33.06558 34990 ft 469 kts 95°
2026-05-05 13:58 42.45356 33.15254 34998 ft 470 kts 95°
2026-05-05 13:59 42.43737 33.28292 34996 ft 469 kts 95°
2026-05-05 14:00 42.42106 33.41307 35006 ft 471 kts 95°
2026-05-05 14:00 42.41008 33.50011 34993 ft 471 kts 96°
2026-05-05 14:01 42.39901 33.58724 35003 ft 472 kts 96°
2026-05-05 14:01 42.38786 33.67456 35004 ft 472 kts 96°
2026-05-05 14:02 42.37662 33.76188 35000 ft 473 kts 96°
2026-05-05 14:02 42.36537 33.84895 34997 ft 473 kts 96°
2026-05-05 14:03 42.35402 33.93623 34998 ft 473 kts 96°
2026-05-05 14:03 42.34264 34.02345 35007 ft 473 kts 96°
2026-05-05 14:04 42.33122 34.11046 35007 ft 473 kts 97°
2026-05-05 14:04 42.31972 34.19757 34988 ft 474 kts 97°
2026-05-05 14:05 42.30806 34.28519 34982 ft 475 kts 97°
2026-05-05 14:05 42.29638 34.37249 35003 ft 474 kts 97°
2026-05-05 14:06 42.28468 34.45940 35004 ft 474 kts 97°
2026-05-05 14:06 42.27283 34.54685 34996 ft 476 kts 97°
2026-05-05 14:07 42.26088 34.63450 35002 ft 475 kts 97°
2026-05-05 14:07 42.24887 34.72198 34986 ft 476 kts 98°
2026-05-05 14:08 42.23681 34.80952 34983 ft 477 kts 98°
2026-05-05 14:08 42.22462 34.89713 34995 ft 477 kts 98°
2026-05-05 14:09 42.21236 34.98468 34999 ft 477 kts 98°
2026-05-05 14:09 42.20001 35.07242 34995 ft 477 kts 98°
2026-05-05 14:10 42.18758 35.16019 35001 ft 478 kts 98°
2026-05-05 14:10 42.17512 35.24765 35000 ft 477 kts 99°
2026-05-05 14:11 42.16267 35.33461 35004 ft 477 kts 99°
2026-05-05 14:11 42.15008 35.42205 34988 ft 477 kts 99°
2026-05-05 14:12 42.13744 35.50949 34994 ft 477 kts 99°
2026-05-05 14:12 42.12473 35.59696 34998 ft 478 kts 99°
2026-05-05 14:13 42.11194 35.68452 35007 ft 478 kts 100°
2026-05-05 14:13 42.09907 35.77210 34999 ft 478 kts 100°
2026-05-05 14:14 42.08616 35.85951 34995 ft 479 kts 100°
2026-05-05 14:14 42.07316 35.94705 35005 ft 479 kts 100°
2026-05-05 14:15 42.06005 36.03469 35001 ft 479 kts 100°
2026-05-05 14:15 42.04693 36.12213 34998 ft 479 kts 101°
2026-05-05 14:16 42.03365 36.21003 34991 ft 480 kts 101°
2026-05-05 14:16 42.02034 36.29765 35002 ft 480 kts 101°
2026-05-05 14:17 42.00699 36.38508 35012 ft 479 kts 101°
2026-05-05 14:17 41.99356 36.47263 35012 ft 480 kts 101°
2026-05-05 14:18 41.98009 36.55994 35003 ft 480 kts 101°
2026-05-05 14:18 41.96655 36.64712 35004 ft 480 kts 101°
2026-05-05 14:19 41.95289 36.73477 35005 ft 481 kts 102°
2026-05-05 14:19 41.93913 36.82246 35008 ft 481 kts 102°
2026-05-05 14:20 41.92534 36.90998 35005 ft 482 kts 102°
2026-05-05 14:20 41.91140 36.99794 35006 ft 483 kts 102°
2026-05-05 14:21 41.90315 37.08633 35010 ft 482 kts 90°
2026-05-05 14:21 41.90206 37.17599 34999 ft 483 kts 91°
2026-05-05 14:22 41.90074 37.26574 35002 ft 482 kts 91°
2026-05-05 14:22 41.89937 37.35396 35001 ft 483 kts 91°
2026-05-05 14:23 41.89790 37.44362 35001 ft 483 kts 91°
2026-05-05 14:23 41.89643 37.52938 35000 ft 483 kts 91°
2026-05-05 14:24 41.89482 37.61965 34996 ft 484 kts 92°
2026-05-05 14:24 41.89315 37.70902 35520 ft 473 kts 92°
2026-05-05 14:25 41.89231 37.75233 36123 ft 461 kts 92°
2026-05-05 14:25 41.89148 37.79516 36660 ft 452 kts 93°
2026-05-05 14:25 41.89065 37.83649 37010 ft 449 kts 93°
2026-05-05 14:25 41.88977 37.87855 36946 ft 456 kts 93°
2026-05-05 14:26 41.88798 37.96446 36996 ft 464 kts 93°
2026-05-05 14:26 41.88610 38.05125 36988 ft 472 kts 93°
2026-05-05 14:27 41.88411 38.13969 36991 ft 477 kts 93°
2026-05-05 14:27 41.88205 38.22842 36993 ft 481 kts 93°
2026-05-05 14:28 41.87991 38.31788 36993 ft 484 kts 93°
2026-05-05 14:28 41.87768 38.40770 36994 ft 485 kts 93°
2026-05-05 14:29 41.87537 38.49818 36995 ft 487 kts 93°
2026-05-05 14:29 41.87299 38.58861 36990 ft 488 kts 93°
2026-05-05 14:30 41.87054 38.67888 36987 ft 489 kts 94°
2026-05-05 14:30 41.86811 38.76622 36990 ft 490 kts 94°
2026-05-05 14:31 41.86557 38.85480 36988 ft 491 kts 94°
2026-05-05 14:31 41.86295 38.94391 36991 ft 491 kts 94°
2026-05-05 14:32 41.86028 39.03223 36993 ft 492 kts 94°
2026-05-05 14:32 41.85752 39.12145 37301 ft 483 kts 94°
2026-05-05 14:33 41.85613 39.16533 37496 ft 480 kts 94°
2026-05-05 14:33 41.85470 39.21014 36848 ft 483 kts 94°
2026-05-05 14:33 41.85325 39.25501 37074 ft 477 kts 94°
2026-05-05 14:33 41.85180 39.29922 37020 ft 482 kts 94°
2026-05-05 14:34 41.84882 39.38851 37036 ft 485 kts 94°
2026-05-05 14:34 41.84571 39.47998 36992 ft 489 kts 94°
2026-05-05 14:35 41.84254 39.57108 36994 ft 491 kts 94°
2026-05-05 14:35 41.83929 39.66219 36994 ft 493 kts 95°
2026-05-05 14:36 41.83601 39.75252 36993 ft 493 kts 95°
2026-05-05 14:36 41.83261 39.84424 36989 ft 494 kts 95°
2026-05-05 14:37 41.82912 39.93590 36986 ft 495 kts 95°
2026-05-05 14:37 41.82558 40.02774 36988 ft 495 kts 95°
2026-05-05 14:38 41.82195 40.11929 36987 ft 495 kts 95°
2026-05-05 14:38 41.81821 40.21174 36990 ft 496 kts 95°
2026-05-05 14:39 41.81442 40.30358 36983 ft 496 kts 95°
2026-05-05 14:39 41.81054 40.39561 36972 ft 496 kts 95°
2026-05-05 14:40 41.80659 40.48775 36976 ft 496 kts 95°
2026-05-05 14:40 41.80258 40.57956 36963 ft 497 kts 96°
2026-05-05 14:41 41.79843 40.67180 36962 ft 497 kts 96°
2026-05-05 14:41 41.79399 40.76345 36960 ft 497 kts 96°
2026-05-05 14:42 41.78947 40.85536 36956 ft 497 kts 96°
2026-05-05 14:42 41.78483 40.94794 36950 ft 497 kts 97°
2026-05-05 14:43 41.78017 41.03976 36946 ft 497 kts 97°
2026-05-05 14:43 41.77544 41.13136 36946 ft 497 kts 97°
2026-05-05 14:44 41.77059 41.22372 36944 ft 497 kts 97°
2026-05-05 14:44 41.76572 41.31527 36946 ft 497 kts 97°
2026-05-05 14:45 41.76073 41.40762 36947 ft 498 kts 97°
2026-05-05 14:45 41.75566 41.50013 36945 ft 498 kts 97°
2026-05-05 14:46 41.75052 41.59245 36948 ft 499 kts 97°
2026-05-05 14:46 41.74530 41.68479 36951 ft 499 kts 97°
2026-05-05 14:47 41.74001 41.77706 36944 ft 499 kts 97°
2026-05-05 14:47 41.73465 41.86948 36945 ft 500 kts 97°
2026-05-05 14:48 41.72924 41.96134 36949 ft 500 kts 98°
2026-05-05 14:48 41.72369 42.05434 36951 ft 500 kts 98°
2026-05-05 14:49 41.71808 42.14689 36948 ft 501 kts 98°
2026-05-05 14:49 41.71241 42.23947 36954 ft 501 kts 98°
2026-05-05 14:50 41.70666 42.33190 36962 ft 501 kts 97°
2026-05-05 14:50 41.70086 42.42406 36956 ft 501 kts 98°
2026-05-05 14:51 41.69496 42.51661 36959 ft 502 kts 98°
2026-05-05 14:51 41.68895 42.60954 36963 ft 502 kts 98°
2026-05-05 14:52 41.68289 42.70223 36956 ft 502 kts 98°
2026-05-05 14:52 41.67676 42.79476 36951 ft 502 kts 98°
2026-05-05 14:53 41.67052 42.88781 36953 ft 502 kts 98°
2026-05-05 14:53 41.66425 42.98015 36954 ft 502 kts 98°
2026-05-05 14:54 41.65788 43.07308 36956 ft 502 kts 98°
2026-05-05 14:54 41.65146 43.16546 36958 ft 503 kts 98°
2026-05-05 14:55 41.64492 43.25850 36956 ft 503 kts 98°
2026-05-05 14:55 41.63832 43.35129 36955 ft 503 kts 99°
2026-05-05 14:56 41.63163 43.44425 36961 ft 504 kts 98°
2026-05-05 14:56 41.62490 43.53680 36960 ft 504 kts 98°
2026-05-05 14:57 41.61803 43.62996 36953 ft 505 kts 99°
2026-05-05 14:57 41.61115 43.72255 36940 ft 505 kts 99°
2026-05-05 14:58 41.60415 43.81569 36944 ft 504 kts 99°
2026-05-05 14:58 41.59708 43.90854 36942 ft 504 kts 99°
2026-05-05 14:59 41.58991 44.00177 36940 ft 505 kts 99°
2026-05-05 14:59 41.58270 44.09462 36949 ft 505 kts 100°
2026-05-05 15:00 41.57663 44.17209 36965 ft 506 kts 100°
2026-05-05 15:00 41.56013 44.27811 36978 ft 498 kts 112°
2026-05-05 15:01 41.53884 44.36539 36947 ft 500 kts 112°
2026-05-05 15:01 41.52784 44.40987 36826 ft 499 kts 113°
2026-05-05 15:01 41.51705 44.45349 36980 ft 497 kts 113°
2026-05-05 15:02 41.49544 44.54030 36947 ft 500 kts 113°
2026-05-05 15:02 41.47344 44.62844 36943 ft 501 kts 113°
2026-05-05 15:03 41.45131 44.71677 36925 ft 502 kts 114°
2026-05-05 15:03 41.42921 44.80464 36935 ft 503 kts 114°
2026-05-05 15:04 41.40704 44.89252 36920 ft 504 kts 114°
2026-05-05 15:04 41.38466 44.98077 36930 ft 504 kts 114°
2026-05-05 15:05 41.35095 45.11319 36912 ft 505 kts 114°
2026-05-05 15:06 41.32840 45.20134 36923 ft 505 kts 115°
2026-05-05 15:06 41.30579 45.28936 36914 ft 506 kts 114°
2026-05-05 15:07 41.28303 45.37761 36901 ft 507 kts 114°
2026-05-05 15:07 41.26011 45.46620 36888 ft 507 kts 114°
2026-05-05 15:08 41.23723 45.55430 36898 ft 507 kts 115°
2026-05-05 15:08 41.21432 45.64221 36930 ft 507 kts 115°
2026-05-05 15:09 41.19099 45.73105 36906 ft 508 kts 116°
2026-05-05 15:09 41.16788 45.81871 36917 ft 508 kts 115°
2026-05-05 15:10 41.14446 45.90727 36900 ft 509 kts 116°
2026-05-05 15:10 41.12103 45.99554 36891 ft 510 kts 116°
2026-05-05 15:11 41.09746 46.08402 36910 ft 511 kts 116°
2026-05-05 15:11 41.07382 46.17237 36902 ft 511 kts 116°
2026-05-05 15:12 41.05002 46.26110 36904 ft 512 kts 116°
2026-05-05 15:12 41.02633 46.34966 36906 ft 513 kts 115°
2026-05-05 15:13 41.00267 46.43823 36900 ft 513 kts 116°
2026-05-05 15:13 40.97891 46.52678 36899 ft 513 kts 115°
2026-05-05 15:14 40.95492 46.61589 36900 ft 514 kts 116°
2026-05-05 15:14 40.93104 46.70433 36882 ft 514 kts 116°
2026-05-05 15:15 40.90696 46.79316 36887 ft 513 kts 116°
2026-05-05 15:15 40.88285 46.88148 36900 ft 513 kts 116°
2026-05-05 15:16 40.85855 46.97010 36901 ft 514 kts 116°
2026-05-05 15:16 40.83431 47.05824 36893 ft 514 kts 116°
2026-05-05 15:17 40.80991 47.14661 36903 ft 514 kts 116°
2026-05-05 15:17 40.78529 47.23488 36899 ft 514 kts 116°
2026-05-05 15:18 40.76045 47.32368 36903 ft 515 kts 117°
2026-05-05 15:18 40.73569 47.41186 36919 ft 514 kts 116°
2026-05-05 15:19 40.71106 47.49962 36919 ft 514 kts 116°
2026-05-05 15:19 40.68609 47.58822 36925 ft 514 kts 116°
2026-05-05 15:20 40.66130 47.67597 36917 ft 514 kts 117°
2026-05-05 15:20 40.63634 47.76396 36921 ft 513 kts 117°
2026-05-05 15:21 40.61135 47.85175 36906 ft 513 kts 117°
2026-05-05 15:21 40.58752 47.93969 36900 ft 519 kts 109°
2026-05-05 15:21 40.58361 47.98689 36928 ft 530 kts 94°
2026-05-05 15:22 40.58552 48.03554 36927 ft 532 kts 92°
2026-05-05 15:22 40.58845 48.13266 36911 ft 533 kts 93°
2026-05-05 15:23 40.59108 48.22975 36911 ft 533 kts 93°
2026-05-05 15:23 40.59359 48.32678 36919 ft 534 kts 93°
2026-05-05 15:24 40.59604 48.42416 36936 ft 534 kts 93°
2026-05-05 15:24 40.59841 48.52136 36911 ft 534 kts 93°
2026-05-05 15:25 40.60068 48.61849 36916 ft 534 kts 93°
2026-05-05 15:25 40.60288 48.71582 36908 ft 534 kts 94°
2026-05-05 15:26 40.60500 48.81326 36912 ft 534 kts 94°
2026-05-05 15:26 40.60703 48.91035 36913 ft 533 kts 94°
2026-05-05 15:27 40.60898 49.00798 36887 ft 532 kts 93°
2026-05-05 15:27 40.61087 49.10479 36899 ft 531 kts 94°
2026-05-05 15:28 40.61275 49.20124 36896 ft 534 kts 92°
2026-05-05 15:28 40.61858 49.29859 36896 ft 536 kts 90°
2026-05-05 15:29 40.62425 49.39639 36895 ft 536 kts 90°
2026-05-05 15:29 40.62973 49.49347 36893 ft 537 kts 90°
2026-05-05 15:30 40.63522 49.59154 36892 ft 536 kts 90°
2026-05-05 15:30 40.64059 49.68918 36885 ft 537 kts 91°
2026-05-05 15:31 40.64586 49.78651 36902 ft 536 kts 91°
2026-05-05 15:31 40.65107 49.88402 36917 ft 536 kts 91°
2026-05-05 15:32 40.65619 49.98179 36907 ft 537 kts 91°
2026-05-05 15:32 40.66119 50.07901 36901 ft 537 kts 91°
2026-05-05 15:33 40.66618 50.17695 36904 ft 538 kts 91°
2026-05-05 15:33 40.67108 50.27513 36909 ft 537 kts 91°
2026-05-05 15:34 40.67589 50.37336 36913 ft 539 kts 91°
2026-05-05 15:34 40.68062 50.47162 36913 ft 540 kts 91°
2026-05-05 15:35 40.68525 50.56973 36910 ft 541 kts 91°
2026-05-05 15:35 40.68981 50.66784 36902 ft 541 kts 92°
2026-05-05 15:36 40.69430 50.76655 36924 ft 540 kts 92°
2026-05-05 15:36 40.69871 50.86533 36905 ft 540 kts 92°
2026-05-05 15:37 40.70301 50.96338 36917 ft 542 kts 92°
2026-05-05 15:37 40.70724 51.06214 36912 ft 542 kts 92°
2026-05-05 15:38 40.71141 51.16121 36902 ft 542 kts 92°
2026-05-05 15:38 40.71549 51.26031 36900 ft 542 kts 92°
2026-05-05 15:39 40.71945 51.35852 36902 ft 543 kts 92°
2026-05-05 15:39 40.72338 51.45770 36903 ft 544 kts 92°
2026-05-05 15:40 40.73457 51.55687 36933 ft 550 kts 81°
2026-05-05 15:40 40.75086 51.65519 36899 ft 551 kts 82°
2026-05-05 15:41 40.76701 51.75348 36899 ft 551 kts 82°
2026-05-05 15:41 40.78301 51.85153 36897 ft 550 kts 82°
2026-05-05 15:42 40.79903 51.95023 36902 ft 551 kts 82°
2026-05-05 15:42 40.81495 52.04895 36905 ft 552 kts 82°
2026-05-05 15:43 40.83077 52.14741 36905 ft 552 kts 82°
2026-05-05 15:43 40.84646 52.24584 36904 ft 551 kts 82°
2026-05-05 15:44 40.86218 52.34480 36894 ft 550 kts 82°
2026-05-05 15:44 40.87778 52.44376 36899 ft 550 kts 82°
2026-05-05 15:45 40.89324 52.54237 36897 ft 551 kts 82°
2026-05-05 15:45 40.90487 52.64111 36908 ft 543 kts 91°
2026-05-05 15:46 40.90918 52.74067 36887 ft 543 kts 92°
2026-05-05 15:46 40.91340 52.83973 36895 ft 543 kts 91°
2026-05-05 15:47 40.91759 52.93951 36889 ft 543 kts 91°
2026-05-05 15:47 40.92166 53.03856 36896 ft 543 kts 91°
2026-05-05 15:48 40.92564 53.13809 36885 ft 542 kts 91°
2026-05-05 15:48 40.92942 53.23705 36875 ft 542 kts 91°
2026-05-05 15:49 40.93314 53.33644 36865 ft 543 kts 91°
2026-05-05 15:49 40.93676 53.43557 36853 ft 543 kts 91°
2026-05-05 15:50 40.94030 53.53464 36850 ft 542 kts 91°
2026-05-05 15:50 40.94374 53.63392 36859 ft 542 kts 91°
2026-05-05 15:51 40.94710 53.73277 36833 ft 540 kts 91°
2026-05-05 15:51 40.95037 53.83151 36833 ft 540 kts 92°
2026-05-05 15:52 40.95356 53.93056 36829 ft 541 kts 92°
2026-05-05 15:52 40.95513 53.98018 37096 ft 540 kts 92°
2026-05-05 15:52 40.95668 54.02997 36631 ft 541 kts 91°
2026-05-05 15:52 40.95820 54.07917 36904 ft 535 kts 91°
2026-05-05 15:53 40.95966 54.12785 36792 ft 540 kts 91°
2026-05-05 15:53 40.96262 54.22742 36851 ft 540 kts 91°
2026-05-05 15:54 40.96546 54.32621 36829 ft 542 kts 91°
2026-05-05 15:54 40.96825 54.42594 36816 ft 543 kts 91°
2026-05-05 15:55 40.97094 54.52532 36812 ft 543 kts 91°
2026-05-05 15:55 40.97354 54.62508 36818 ft 542 kts 91°
2026-05-05 15:56 40.97607 54.72431 36800 ft 541 kts 92°
2026-05-05 15:56 40.97851 54.82388 36809 ft 542 kts 92°
2026-05-05 15:57 40.98081 54.92276 36821 ft 542 kts 92°
2026-05-05 15:57 40.98298 55.02242 36834 ft 544 kts 92°
2026-05-05 15:58 40.98506 55.12183 36839 ft 543 kts 92°
2026-05-05 15:58 40.98706 55.22136 36841 ft 542 kts 91°
2026-05-05 15:59 40.98899 55.32132 36843 ft 543 kts 91°
2026-05-05 15:59 40.99080 55.42043 36841 ft 542 kts 91°
2026-05-05 16:00 40.99254 55.51996 36833 ft 541 kts 91°
2026-05-05 16:00 40.99421 55.61955 36825 ft 542 kts 91°
2026-05-05 16:01 40.99577 55.71912 36804 ft 541 kts 92°
2026-05-05 16:01 40.99733 55.81802 36799 ft 541 kts 91°
2026-05-05 16:02 40.99892 55.91718 36791 ft 541 kts 92°
2026-05-05 16:02 41.00046 56.01667 36790 ft 540 kts 92°
2026-05-05 16:03 41.00189 56.11557 36803 ft 539 kts 92°
2026-05-05 16:03 41.00322 56.21413 36811 ft 540 kts 91°
2026-05-05 16:04 41.00448 56.31333 36814 ft 540 kts 91°
2026-05-05 16:04 41.00566 56.41204 36812 ft 538 kts 91°
2026-05-05 16:05 41.00738 56.51139 36796 ft 540 kts 85°
2026-05-05 16:05 41.01895 56.60902 36828 ft 542 kts 82°
2026-05-05 16:06 41.03073 56.70755 36838 ft 541 kts 83°
2026-05-05 16:06 41.04232 56.80541 37006 ft 542 kts 83°
2026-05-05 16:06 41.04812 56.85456 36750 ft 539 kts 83°
2026-05-05 16:07 41.05387 56.90362 36905 ft 533 kts 83°
2026-05-05 16:07 41.06522 57.00082 36820 ft 537 kts 82°
2026-05-05 16:08 41.07645 57.09775 36822 ft 538 kts 83°
2026-05-05 16:08 41.08772 57.19581 36826 ft 537 kts 83°
2026-05-05 16:09 41.09880 57.29303 36825 ft 537 kts 82°
2026-05-05 16:09 41.10989 57.39086 36820 ft 537 kts 82°
2026-05-05 16:10 41.12083 57.48840 36721 ft 533 kts 82°
2026-05-05 16:10 41.12625 57.53693 36906 ft 533 kts 82°
2026-05-05 16:10 41.13168 57.58567 37031 ft 537 kts 82°
2026-05-05 16:10 41.13710 57.63469 36676 ft 539 kts 82°
2026-05-05 16:11 41.14248 57.68339 36929 ft 535 kts 83°
2026-05-05 16:12 41.16333 57.87422 36816 ft 539 kts 83°
2026-05-05 16:13 41.18964 58.11948 36835 ft 540 kts 83°
2026-05-05 16:13 41.20010 58.21823 36836 ft 540 kts 83°
2026-05-05 16:14 41.22068 58.41515 36847 ft 539 kts 82°
2026-05-05 16:15 41.24085 58.61148 36858 ft 538 kts 82°
2026-05-05 16:16 41.26071 58.80814 36854 ft 538 kts 83°
2026-05-05 16:17 41.27535 58.95532 36859 ft 538 kts 83°
2026-05-05 16:18 41.28981 59.10265 36872 ft 538 kts 83°
2026-05-05 16:19 41.30409 59.25014 36870 ft 537 kts 83°
2026-05-05 16:19 41.31813 59.39719 36874 ft 537 kts 83°
2026-05-05 16:20 41.33662 59.59393 36883 ft 537 kts 82°
2026-05-05 16:21 41.34888 59.69134 36852 ft 535 kts 71°
2026-05-05 16:22 41.38380 59.83273 36884 ft 537 kts 71°
2026-05-05 16:23 41.42947 60.02127 36880 ft 536 kts 71°
2026-05-05 16:23 41.46338 60.16227 36886 ft 535 kts 71°
2026-05-05 16:24 41.48577 60.25659 36887 ft 535 kts 71°
2026-05-05 16:25 41.51895 60.39769 36898 ft 534 kts 71°
2026-05-05 16:25 41.55200 60.53909 36907 ft 533 kts 71°
2026-05-05 16:26 41.58373 60.73117 36932 ft 535 kts 84°
2026-05-05 16:27 41.58987 60.82948 36916 ft 534 kts 84°
2026-05-05 16:27 41.59596 60.92816 36910 ft 534 kts 84°
2026-05-05 16:28 41.60196 61.02685 36909 ft 534 kts 84°
2026-05-05 16:28 41.60786 61.12517 36915 ft 534 kts 84°
2026-05-05 16:29 41.61369 61.22378 36917 ft 533 kts 84°
2026-05-05 16:29 41.61939 61.32172 36920 ft 534 kts 84°
2026-05-05 16:30 41.62493 61.41843 36922 ft 533 kts 84°
2026-05-05 16:30 41.63051 61.51702 36923 ft 533 kts 84°
2026-05-05 16:31 41.63600 61.61568 36925 ft 533 kts 84°
2026-05-05 16:31 41.64140 61.71428 36913 ft 533 kts 84°
2026-05-05 16:32 41.64666 61.81302 36921 ft 532 kts 85°
2026-05-05 16:32 41.65178 61.91140 36922 ft 532 kts 85°
2026-05-05 16:33 41.65679 62.00946 36923 ft 532 kts 85°
2026-05-05 16:33 41.66174 62.10783 36922 ft 533 kts 84°
2026-05-05 16:34 41.66660 62.20628 36926 ft 532 kts 84°
2026-05-05 16:34 41.67135 62.30405 36936 ft 532 kts 84°
2026-05-05 16:35 41.67606 62.40282 36944 ft 531 kts 84°
2026-05-05 16:35 41.68066 62.50100 36941 ft 531 kts 84°
2026-05-05 16:36 41.68517 62.59901 36939 ft 531 kts 84°
2026-05-05 16:36 41.68961 62.69750 36923 ft 531 kts 85°
2026-05-05 16:37 41.69395 62.79569 36931 ft 531 kts 85°
2026-05-05 16:37 41.69821 62.89362 36945 ft 531 kts 85°
2026-05-05 16:38 41.70239 62.99197 36949 ft 531 kts 85°
2026-05-05 16:38 41.70652 63.09047 36950 ft 531 kts 85°
2026-05-05 16:39 41.71055 63.18874 36941 ft 530 kts 85°
2026-05-05 16:39 41.71449 63.28662 36939 ft 529 kts 85°
2026-05-05 16:40 41.71836 63.38491 36943 ft 530 kts 85°
2026-05-05 16:40 41.72216 63.48316 36948 ft 529 kts 85°
2026-05-05 16:41 41.72583 63.58101 36946 ft 529 kts 85°
2026-05-05 16:41 41.72944 63.67897 36941 ft 529 kts 85°
2026-05-05 16:42 41.73298 63.77714 36949 ft 528 kts 85°
2026-05-05 16:42 41.73640 63.87484 36952 ft 528 kts 85°
2026-05-05 16:43 41.73975 63.97254 36953 ft 528 kts 85°
2026-05-05 16:43 41.74301 64.07024 36957 ft 527 kts 85°
2026-05-05 16:44 41.74621 64.16843 36958 ft 528 kts 85°
2026-05-05 16:44 41.74930 64.26598 36959 ft 526 kts 85°
2026-05-05 16:45 41.75231 64.36373 36958 ft 526 kts 85°
2026-05-05 16:45 41.75523 64.46112 36958 ft 526 kts 85°
2026-05-05 16:46 41.75808 64.55881 36961 ft 526 kts 85°
2026-05-05 16:46 41.76519 64.65561 36973 ft 520 kts 76°
2026-05-05 16:47 41.77913 64.75056 36962 ft 522 kts 76°
2026-05-05 16:47 41.79275 64.84523 36963 ft 521 kts 76°
2026-05-05 16:48 41.80631 64.94022 36957 ft 520 kts 76°
2026-05-05 16:48 41.81978 65.03511 36950 ft 520 kts 76°
2026-05-05 16:49 41.83318 65.13010 36958 ft 520 kts 76°
2026-05-05 16:49 41.84652 65.22528 36957 ft 520 kts 76°
2026-05-05 16:50 41.85973 65.32018 36960 ft 519 kts 76°
2026-05-05 16:50 41.87286 65.41502 36960 ft 519 kts 76°
2026-05-05 16:51 41.88591 65.51000 36963 ft 519 kts 76°
2026-05-05 16:51 41.89895 65.60545 36959 ft 519 kts 76°
2026-05-05 16:52 41.91187 65.70053 36954 ft 518 kts 77°
2026-05-05 16:52 41.92465 65.79535 36954 ft 518 kts 77°
2026-05-05 16:53 41.93733 65.88992 36957 ft 518 kts 77°
2026-05-05 16:53 41.95000 65.98518 36958 ft 518 kts 77°
2026-05-05 16:54 41.96253 66.08015 36961 ft 517 kts 77°
2026-05-05 16:54 41.97489 66.17468 36961 ft 517 kts 77°
2026-05-05 16:55 41.98731 66.27014 36962 ft 516 kts 77°
2026-05-05 16:55 41.99954 66.36483 36963 ft 516 kts 77°
2026-05-05 16:56 42.01175 66.46011 36965 ft 516 kts 77°
2026-05-05 16:56 42.02378 66.55447 36965 ft 515 kts 77°
2026-05-05 16:57 42.03574 66.64907 36965 ft 514 kts 77°
2026-05-05 16:57 42.04767 66.74397 36961 ft 514 kts 78°
2026-05-05 16:58 42.05947 66.83853 36960 ft 514 kts 78°
2026-05-05 16:58 42.07126 66.93362 36960 ft 514 kts 78°
2026-05-05 16:59 42.08289 67.02820 36963 ft 513 kts 78°
2026-05-05 16:59 42.09439 67.12236 36964 ft 513 kts 78°
2026-05-05 17:00 42.10589 67.21706 36967 ft 513 kts 78°
2026-05-05 17:00 42.11729 67.31181 36967 ft 512 kts 78°
2026-05-05 17:01 42.12864 67.40668 36968 ft 512 kts 78°
2026-05-05 17:01 42.13982 67.50087 36974 ft 511 kts 79°
2026-05-05 17:02 42.15098 67.59553 36972 ft 511 kts 78°
2026-05-05 17:02 42.16194 67.68919 36965 ft 511 kts 79°
2026-05-05 17:03 42.17256 67.78061 36970 ft 510 kts 79°
2026-05-05 17:03 42.18345 67.87503 36970 ft 510 kts 79°
2026-05-05 17:04 42.19416 67.96862 36974 ft 509 kts 79°
2026-05-05 17:04 42.20490 68.06316 36965 ft 509 kts 79°
2026-05-05 17:05 42.21549 68.15712 36969 ft 509 kts 79°
2026-05-05 17:05 42.22603 68.25119 36983 ft 508 kts 79°
2026-05-05 17:06 42.23798 68.34483 36984 ft 508 kts 78°
2026-05-05 17:06 42.24988 68.43844 36998 ft 508 kts 78°
2026-05-05 17:07 42.26173 68.53236 36994 ft 508 kts 78°
2026-05-05 17:07 42.27351 68.62622 36995 ft 508 kts 78°
2026-05-05 17:08 42.28511 68.71941 37005 ft 507 kts 79°
2026-05-05 17:08 42.29673 68.81343 37005 ft 507 kts 79°
2026-05-05 17:09 42.30820 68.90679 37033 ft 506 kts 79°
2026-05-05 17:09 42.31958 69.00016 37025 ft 506 kts 79°
2026-05-05 17:10 42.33092 69.09380 37032 ft 506 kts 79°
2026-05-05 17:10 42.34216 69.18739 37049 ft 505 kts 79°
2026-05-05 17:11 42.35327 69.28042 37060 ft 504 kts 79°
2026-05-05 17:11 42.36431 69.37360 37055 ft 504 kts 79°
2026-05-05 17:12 42.37794 69.46656 37059 ft 500 kts 70°
2026-05-05 17:12 42.39914 69.55578 37057 ft 501 kts 70°
2026-05-05 17:13 42.42009 69.64535 37081 ft 501 kts 70°
2026-05-05 17:13 42.44088 69.73457 37106 ft 500 kts 71°
2026-05-05 17:14 42.46176 69.82455 37121 ft 500 kts 71°
2026-05-05 17:14 42.48241 69.91391 37124 ft 499 kts 71°
2026-05-05 17:15 42.50294 70.00307 37131 ft 499 kts 71°
2026-05-05 17:15 42.52405 70.09246 37139 ft 497 kts 67°
2026-05-05 17:16 42.54866 70.17966 37147 ft 497 kts 68°
2026-05-05 17:16 42.57276 70.26651 37181 ft 496 kts 68°
2026-05-05 17:17 42.59696 70.35405 37178 ft 496 kts 67°
2026-05-05 17:17 42.62103 70.44154 37176 ft 495 kts 68°
2026-05-05 17:18 42.64492 70.52894 37212 ft 495 kts 68°
2026-05-05 17:18 42.66871 70.61609 37188 ft 494 kts 66°
2026-05-05 17:19 42.69505 70.70203 37195 ft 494 kts 66°
2026-05-05 17:19 42.72131 70.78785 37196 ft 494 kts 66°
2026-05-05 17:20 42.74768 70.87440 37165 ft 493 kts 65°
2026-05-05 17:20 42.77387 70.96066 37157 ft 492 kts 65°
2026-05-05 17:21 42.79978 71.04627 37132 ft 491 kts 66°
2026-05-05 17:22 42.83870 71.17537 37113 ft 491 kts 65°
2026-05-05 17:22 42.86467 71.26189 37099 ft 491 kts 66°
2026-05-05 17:23 42.88227 71.35186 37118 ft 494 kts 75°
2026-05-05 17:23 42.89745 71.44326 37092 ft 493 kts 75°
2026-05-05 17:24 42.91256 71.53485 37083 ft 493 kts 75°
2026-05-05 17:24 42.92752 71.62598 37102 ft 493 kts 75°
2026-05-05 17:25 42.94220 71.71585 37098 ft 493 kts 76°
2026-05-05 17:25 42.95705 71.80735 37110 ft 493 kts 76°
2026-05-05 17:26 42.97422 71.89754 37133 ft 493 kts 73°
2026-05-05 17:26 42.99239 71.98816 37139 ft 491 kts 73°
2026-05-05 17:27 43.01033 72.07815 37092 ft 492 kts 73°
2026-05-05 17:27 43.02823 72.16842 37112 ft 492 kts 73°
2026-05-05 17:28 43.04602 72.25855 37095 ft 492 kts 73°
2026-05-05 17:28 43.06378 72.34892 37099 ft 490 kts 73°
2026-05-05 17:28 43.07247 72.39333 36627 ft 482 kts 73°
2026-05-05 17:29 43.08109 72.43736 35495 ft 486 kts 73°
2026-05-05 17:29 43.08981 72.48205 34402 ft 489 kts 74°
2026-05-05 17:29 43.09854 72.52689 33205 ft 491 kts 74°
2026-05-05 17:29 43.10727 72.57194 31940 ft 494 kts 75°
2026-05-05 17:30 43.11603 72.61716 30911 ft 494 kts 75°
2026-05-05 17:30 43.12484 72.66282 31308 ft 491 kts 76°
2026-05-05 17:30 43.13359 72.70829 31080 ft 503 kts 76°
2026-05-05 17:31 43.15143 72.80122 31226 ft 506 kts 76°
2026-05-05 17:31 43.16036 72.84785 31025 ft 512 kts 76°
2026-05-05 17:31 43.16926 72.89449 31072 ft 509 kts 76°
2026-05-05 17:32 43.18702 72.98790 31086 ft 506 kts 76°
2026-05-05 17:32 43.20462 73.08099 31083 ft 504 kts 76°
2026-05-05 17:33 43.22204 73.17396 31088 ft 505 kts 76°
2026-05-05 17:33 43.23936 73.26692 31084 ft 505 kts 76°
2026-05-05 17:34 43.25667 73.36023 31081 ft 504 kts 76°
2026-05-05 17:34 43.27383 73.45321 31085 ft 505 kts 76°
2026-05-05 17:35 43.29088 73.54608 31079 ft 505 kts 76°
2026-05-05 17:35 43.30786 73.63900 31079 ft 504 kts 76°
2026-05-05 17:36 43.32480 73.73217 31076 ft 504 kts 76°
2026-05-05 17:36 43.34170 73.82561 31077 ft 504 kts 76°
2026-05-05 17:37 43.35842 73.91853 31081 ft 505 kts 76°
2026-05-05 17:37 43.37519 74.01216 31082 ft 504 kts 76°
2026-05-05 17:38 43.39175 74.10507 31087 ft 504 kts 76°
2026-05-05 17:38 43.40833 74.19863 31100 ft 504 kts 76°
2026-05-05 17:39 43.42481 74.29200 31104 ft 504 kts 76°
2026-05-05 17:39 43.44128 74.38548 31115 ft 504 kts 76°
2026-05-05 17:40 43.45775 74.47941 31128 ft 505 kts 76°
2026-05-05 17:40 43.47417 74.57365 31137 ft 505 kts 76°
2026-05-05 17:41 43.49048 74.66765 31146 ft 504 kts 77°
2026-05-05 17:41 43.50643 74.76159 31150 ft 505 kts 79°
2026-05-05 17:41 43.50815 74.80979 31137 ft 505 kts 95°
2026-05-05 17:42 43.50153 74.85707 31165 ft 505 kts 105°
2026-05-05 17:42 43.48439 74.95082 31143 ft 506 kts 104°
2026-05-05 17:43 43.46727 75.04466 31139 ft 505 kts 104°
2026-05-05 17:43 43.45014 75.13825 31142 ft 505 kts 104°
2026-05-05 17:44 43.43296 75.23161 31163 ft 505 kts 104°
2026-05-05 17:44 43.41565 75.32530 31164 ft 506 kts 104°
2026-05-05 17:45 43.39822 75.41914 31161 ft 506 kts 104°
2026-05-05 17:45 43.38075 75.51274 31162 ft 507 kts 104°
2026-05-05 17:46 43.36876 75.60784 31181 ft 507 kts 97°
2026-05-05 17:46 43.35961 75.70297 31191 ft 507 kts 98°
2026-05-05 17:47 43.35022 75.79930 31205 ft 508 kts 98°
2026-05-05 17:47 43.34079 75.89497 30739 ft 491 kts 97°
2026-05-05 17:47 43.33694 75.93372 29031 ft 487 kts 97°
2026-05-05 17:48 43.33246 75.97879 26963 ft 479 kts 97°
2026-05-05 17:48 43.32805 76.02298 25539 ft 460 kts 97°
2026-05-05 17:48 43.32378 76.06547 23876 ft 449 kts 97°
2026-05-05 17:48 43.31965 76.10665 22233 ft 437 kts 97°
2026-05-05 17:49 43.31557 76.14714 20692 ft 423 kts 97°
2026-05-05 17:49 43.31160 76.18630 19134 ft 412 kts 97°
2026-05-05 17:49 43.30802 76.22159 17797 ft 400 kts 97°
2026-05-05 17:49 43.30494 76.25183 16566 ft 392 kts 97°
2026-05-05 17:50 43.30121 76.28827 16132 ft 367 kts 97°
2026-05-05 17:50 43.29779 76.32149 16436 ft 355 kts 97°
2026-05-05 17:50 43.29431 76.35527 16124 ft 350 kts 97°
2026-05-05 17:50 43.29099 76.38746 16256 ft 342 kts 97°
2026-05-05 17:51 43.28764 76.41993 16205 ft 345 kts 97°
2026-05-05 17:51 43.28429 76.45213 16235 ft 346 kts 97°
2026-05-05 17:51 43.28087 76.48506 16236 ft 346 kts 97°
2026-05-05 17:51 43.27745 76.51775 16222 ft 343 kts 97°
2026-05-05 17:52 43.27413 76.54951 15863 ft 339 kts 97°
2026-05-05 17:52 43.27077 76.58155 15172 ft 342 kts 97°
2026-05-05 17:52 43.26739 76.61365 14632 ft 341 kts 97°
2026-05-05 17:52 43.26585 76.64582 14145 ft 338 kts 84°
2026-05-05 17:53 43.27194 76.67694 13623 ft 337 kts 70°
2026-05-05 17:53 43.27981 76.70720 13072 ft 337 kts 71°
2026-05-05 17:53 43.28745 76.73727 12609 ft 334 kts 71°
2026-05-05 17:53 43.29497 76.76699 12180 ft 331 kts 71°
2026-05-05 17:54 43.30244 76.79658 11435 ft 325 kts 71°
2026-05-05 17:54 43.30975 76.82558 10330 ft 324 kts 71°
2026-05-05 17:54 43.31680 76.85357 10083 ft 295 kts 70°
2026-05-05 17:54 43.32328 76.87929 9570 ft 288 kts 70°
2026-05-05 17:55 43.32978 76.90514 9570 ft 286 kts 70°
2026-05-05 17:55 43.33637 76.93138 9510 ft 289 kts 70°
2026-05-05 17:55 43.34293 76.95760 9483 ft 285 kts 71°
2026-05-05 17:55 43.34934 76.98314 9498 ft 286 kts 70°
2026-05-05 17:56 43.35582 77.00906 9495 ft 286 kts 70°
2026-05-05 17:56 43.36231 77.03501 9499 ft 286 kts 70°
2026-05-05 17:56 43.36931 77.06038 9488 ft 286 kts 61°
2026-05-05 17:56 43.38232 77.08061 9490 ft 284 kts 35°
2026-05-05 17:57 43.39993 77.09152 9248 ft 281 kts 12°
2026-05-05 17:57 43.41953 77.09424 8808 ft 283 kts
2026-05-05 17:57 43.43892 77.09755 8449 ft 282 kts
2026-05-05 17:57 43.45857 77.10116 8116 ft 281 kts
2026-05-05 17:58 43.47786 77.10480 7801 ft 281 kts
2026-05-05 17:58 43.49566 77.11408 7747 ft 277 kts 35°
2026-05-05 17:58 43.50893 77.13329 7795 ft 279 kts 55°
2026-05-05 17:58 43.51976 77.15517 7718 ft 272 kts 55°
2026-05-05 17:59 43.53006 77.17584 7420 ft 256 kts 55°
2026-05-05 17:59 43.54010 77.19602 6843 ft 254 kts 55°
2026-05-05 17:59 43.55005 77.21606 6598 ft 252 kts 54°
2026-05-05 17:59 43.55999 77.23592 6598 ft 252 kts 54°
2026-05-05 18:00 43.56996 77.25589 6615 ft 250 kts 54°
2026-05-05 18:00 43.57937 77.27608 6628 ft 253 kts 65°
2026-05-05 18:00 43.58239 77.29968 6604 ft 253 kts 94°
2026-05-05 18:00 43.57682 77.32226 6339 ft 255 kts 122°
2026-05-05 18:01 43.56379 77.33876 6000 ft 259 kts 148°
2026-05-05 18:01 43.54834 77.35161 5739 ft 257 kts 148°
2026-05-05 18:01 43.53136 77.35926 5425 ft 260 kts 176°
2026-05-05 18:01 43.51388 77.35451 5241 ft 260 kts 207°
2026-05-05 18:02 43.50045 77.33837 5277 ft 254 kts 236°
2026-05-05 18:02 43.49118 77.31830 5288 ft 243 kts 237°
2026-05-05 18:02 43.48224 77.29957 5165 ft 228 kts 237°
2026-05-05 18:02 43.47375 77.28182 5006 ft 217 kts 237°
2026-05-05 18:03 43.46522 77.26514 4696 ft 214 kts 233°
2026-05-05 18:03 43.45642 77.24937 4402 ft 198 kts 232°
2026-05-05 18:03 43.44790 77.23450 4301 ft 199 kts 232°
2026-05-05 18:03 43.43984 77.21896 4249 ft 198 kts 237°
2026-05-05 18:04 43.43269 77.20341 4412 ft 188 kts 239°
2026-05-05 18:04 43.42546 77.18864 4419 ft 177 kts 234°
2026-05-05 18:04 43.41894 77.17532 4200 ft 163 kts 238°
2026-05-05 18:04 43.41288 77.16245 3950 ft 159 kts 233°
2026-05-05 18:05 43.40648 77.15040 3736 ft 157 kts 235°
2026-05-05 18:05 43.40048 77.13798 3547 ft 158 kts 238°
2026-05-05 18:05 43.39436 77.12526 3338 ft 160 kts 236°
2026-05-05 18:05 43.38832 77.11282 3115 ft 157 kts 237°
2026-05-05 18:06 43.38223 77.10062 2925 ft 156 kts 236°
2026-05-05 18:06 43.37820 77.09265 2774 ft 154 kts 239°
2026-05-05 18:06 43.37022 77.07625 2522 ft 154 kts 238°
2026-05-05 18:06 43.36424 77.06395 2325 ft 155 kts 236°
2026-05-05 18:07 43.35846 77.05235 2263 ft 136 kts 234°
2026-05-05 18:07 43.35381 77.04295 2254 ft 95 kts 232°
2026-05-05 18:07 43.35121 77.03761 2250 ft 41 kts 237°
2026-05-05 18:07 43.34925 77.03370 2244 ft 53 kts 235°
2026-05-05 18:08 43.34785 77.02935 2245 ft 46 kts 262°
2026-05-05 18:08 43.34772 77.02548 2242 ft 34 kts 270°
2026-05-05 18:08 43.34781 77.02288 2241 ft 14 kts 274°
2026-05-05 18:08 43.34782 77.02270 2240 ft 0 kts 275°
2026-05-05 18:09 43.34786 77.02219 2239 ft 13 kts 274°
2026-05-05 18:09 43.34793 77.02051 2238 ft 19 kts 274°
2026-05-05 18:10 43.34803 77.01865 2237 ft 19 kts 272°
2026-05-05 18:10 43.34812 77.01680 2237 ft 19 kts 274°
2026-05-05 18:10 43.34817 77.01533 2236 ft 10 kts 268°
2026-05-05 18:10 43.34797 77.01440 2237 ft 9 kts 246°
2026-05-05 18:11 43.34763 77.01369 2238 ft 7 kts 234°
2026-05-05 18:11 43.34743 77.01324 2239 ft 3 kts 242°
2026-05-05 18:11 43.34737 77.01305 2240 ft 0 kts 245°
2026-05-05 18:11 43.34735 77.01299 2240 ft 1 kts 244°
2026-05-05 18:12 43.34732 77.01291 2240 ft 0 kts 244°